Flight Track Log - Related Links

Times and Time Zones

All times are in EDT time to prevent confusion due to time zone crossing. See the N76AD flight status page for this flight to view local times or setup timezone preferences in your user account.

Time Position Orientation Groundspeed Altitude Reporting Facility
EDT Latitude Longitude Course Direction KTS MPH feet Rate Location/Type
11:55 40.7167 -73.4000 37° Northeast 103 119 1,500  Level New York TRACON
11:56 40.7333 -73.3833 37° Northeast 127 146 2,100 700 Climbing New York TRACON
11:57 40.7667 -73.3667 21° North 126 145 2,900 450 Climbing New York TRACON
11:58 40.8167 -73.3500 14° North 138 159 3,000 150 Climbing New York TRACON
11:59 40.8500 -73.3333 21° North 144 166 3,200 350 Climbing New York TRACON
12:00 40.8833 -73.3167 21° North 140 161 3,700 500 Climbing New York TRACON
12:01 40.9167 -73.3000 21° North 142 163 4,200 450 Climbing New York TRACON
12:02 40.9333 -73.2500 66° East 136 157 4,600 400 Climbing New York TRACON
12:03 40.9333 -73.2000 90° East 135 155 5,000 450 Climbing New York TRACON
12:04 40.9500 -73.1500 66° East 134 154 5,500 450 Climbing New York TRACON
12:05 40.9500 -73.1000 90° East 136 157 5,900 350 Climbing New York TRACON
12:06 40.9667 -73.0667 56° Northeast 139 160 6,200 300 Climbing New York TRACON
12:07 40.9833 -73.0167 66° East 138 159 6,500 350 Climbing New York TRACON
12:08 41.0000 -72.9667 66° East 139 160 6,900 250 Climbing New York TRACON
12:09 41.0000 -72.9167 90° East 146 168 7,000  Climbing New York TRACON
12:10 41.0167 -72.8667 66° East 149 171 6,900 -100 Descending New York TRACON
12:11 41.0333 -72.8167 66° East 144 166 6,800 50 Descending New York TRACON
12:12 41.0333 -72.7667 90° East 139 160 7,000 48 Climbing New York TRACON
12:14 41.0500 -72.7000 72° East 151 174 6,900 -48 Descending New York TRACON
12:15 41.0667 -72.6500 66° East 147 169 6,900 53 Level New York TRACON
12:15 41.0833 -72.6167 56° Northeast 145 167 7,000 -158 Climbing New York TRACON
12:16 41.0833 -72.5667 90° East 140 161 6,600 -443 Descending New York TRACON
12:17 41.1061 -72.5228 55° Northeast 135 155 6,100 -422 Descending Boston Center
12:19 41.1103 -72.4731 84° East 120 138 5,700 -472 Descending Boston Center
12:20 41.1228 -72.4264 70° East 133 153 5,100 -393 Descending Boston Center
12:21 41.1417 -72.3794 62° Northeast 140 161 4,900 -99 Descending Boston Center
12:22 41.1519 -72.3297 75° East 132 152 4,900 -248 Level Boston Center
12:23 41.1583 -72.2831 80° East 131 151 4,400 -496 Descending Boston Center
12:24 41.1603 -72.2333 87° East 126 145 3,900 -446 Descending Boston Center
12:25 41.1622 -72.1892 87° East 122 140 3,500 -541 Descending Boston Center
12:26 41.1975 -72.1725 20° North 139 160 2,800 -446 Descending Boston Center
12:27 41.2247 -72.1392 43° Northeast 149 171 2,600 -446 Descending Boston Center
12:28 41.2578 -72.1114 32° Northeast 149 171 1,900 -639 Descending Boston Center
12:29 41.2869 -72.0864 33° Northeast 141 162 1,300 -645 Descending Boston Center
12:30 41.3161 -72.0614 33° Northeast 133 153 600 -397 Descending Boston Center
12:31 41.3306 -72.0336 55° Northeast 112 129 500 -99 Descending Boston Center
12:32 41.3347 -72.0475 292° West 111 128 400 -100 Descending Boston Center

Login

Don't have an account? Register now (free) for customized features, flight alerts, and more!